Tracking 29892 objects as of 21-Nov-2024
HD Live streaming from Space Station
objects crossing your sky now

FENGYUN 1C DEB

Track FENGYUN 1C DEB now!
10-day predictions


NORAD ID: 30817
Int'l Code: 1999-025AVB
Perigee: 855.9 km
Apogee: 945.3 km
Inclination: 98.8 °
Period: 102.9 minutes
Semi major axis: 7271 km
RCS: 0.0075 m2 (small)
Launch date: May 10, 1999
Source: People's Republic of China (PRC)
Launch site: Taiyaun Space Center, China (TSC)

Note: This is SATELLITE DEBRIS
Your satellite tracking list
Your tracking list is empty




NASA's NSSDC Master Catalog

Two Line Element Set (TLE):
1 30817U 99025AVB 24324.93004488  .00001315  00000-0  90657-3 0  9995
2 30817  98.7674 324.4219 0061475 243.1358 116.3514 14.00086430905456
Source of the keplerian elements: AFSPC